User: anonymous   Login
Location: Unspecified
(0.0000°N, 0.0000°E)
Time: 15:37:24
(UTC+01:00)
Language:

ATLAS 2AS CENTAUR R/B - Orbit

View from above orbital plane
View from above orbital plane
View from above satellite
View from above satellite

Ground track
Ground track

The orbit data is extracted from the following two-line orbital elements,

1 28096U 03054B   15023.18644821 0.00000050  00000-0  74755-4 0    02
2 28096  63.6690 111.8909 0256000 290.8766  69.1233 13.40768098    07
Epoch (UTC): 23 January 2015 04:28:29
Eccentricity: 0.0256000
inclination: 63.6690°
perigee height: 915 km
apogee height: 1298 km
right ascension of ascending node: 111.8909°
argument of perigee: 290.8766°
revolutions per day: 13.40768098
mean anomaly at epoch: 69.1233°
orbit number at epoch: 0

The dashed part of the orbit path shows where the satellite is in the earth's shadow,  

DLR